{"data":{"norad_id":62475,"intl_designator":"2024-254P","name":"STARLINK-32657","alt_names":[],"object_type":"PAYLOAD","status":"ACTIVE","operator":null,"country":"US","launch_date":"2024-12-31","launch_site_code":"AFETR","launch_vehicle":null,"mission":null,"orbit_class":"UNKNOWN","rcs_meters":null,"size_class":null,"mass_kg":null,"dimensions":null,"purposes":["comms"],"wikipedia_slug":null,"has_3d_model":false,"image_url":null,"decayed_at":null,"tle_current":{"epoch":"2026-05-24T18:59:26.331072Z","epoch_age_seconds":103666,"freshness":"FRESH","line1":"1 62475U 24254P   26144.79127698  .00023735  00000+0  86869-3 0  9996","line2":"2 62475  43.0016 309.8912 0001734 274.7461  85.3193 15.27601531 79105","mean_motion":15.27601531,"eccentricity":0.0001734,"inclination_deg":43.0016,"raan_deg":309.8912,"arg_perigee_deg":274.7461,"mean_anomaly_deg":85.3193,"bstar":0.00086869,"rev_number":7910,"period_min":94.265420057372,"perigee_km":481.79490674735,"apogee_km":484.17434372699,"semimajor_km":6861.1216252372,"source":"CELESTRAK","updated_at":"2026-05-25T13:38:19.694016Z"}}}